Location: Banksville Park
(38.5557°N, 75.1182°W)
Time: 21:21:23
(UTC+00:00)

N. Korean satellite - Visible Passes

Search period start: 30 November 2020 00:00
Search period end: 10 December 2020 00:00
Orbit: 453 x 504 km, 97.2° (Epoch: 29 November)

Date Brightness Start Highest point End Pass type
(mag) Time Alt. Az. Time Alt. Az. Time Alt. Az.
30 Nov 10.2 09:22:48 10° E 09:23:20 10° E 09:23:52 10° E visible
30 Nov 6.9 10:53:24 10° N 10:56:51 43° WNW 11:00:19 10° SSW visible
01 Dec 6.6 10:26:57 10° NNE 10:30:36 80° ESE 10:34:15 10° S visible
01 Dec 9.6 22:34:54 10° SW 22:37:17 18° W 22:39:42 10° NW visible
02 Dec 8.3 10:00:55 10° NNE 10:04:15 34° E 10:07:36 10° SSE visible
02 Dec 8.1 22:07:37 10° S 22:10:50 40° W 22:14:07 10° NNW visible
03 Dec 9.7 09:35:29 10° NE 09:37:48 16° E 09:40:07 10° SE visible
03 Dec 7.5 11:07:59 10° NNW 11:11:08 28° WNW 11:14:18 10° SW visible
04 Dec 6.5 10:41:18 10° N 10:44:54 63° WNW 10:48:32 10° SSW visible
04 Dec 10.0 22:50:25 10° WSW 22:51:40 12° W 22:52:58 10° WNW visible
05 Dec 7.4 10:14:59 10° NNE 10:18:35 54° E 10:22:11 10° S visible
05 Dec 9.1 22:22:15 10° SSW 22:25:09 25° W 22:28:05 10° NW visible
06 Dec 9.0 09:49:08 10° NE 09:52:09 24° E 09:55:11 10° SSE visible
06 Dec 8.0 11:22:39 10° NNW 11:25:18 19° WNW 11:27:58 10° WSW visible
07 Dec 10.1 09:24:23 10° ENE 09:25:37 11° E 09:26:52 10° ESE visible
07 Dec 7.0 10:55:39 10° N 10:59:06 40° WNW 11:02:34 10° SW visible
08 Dec 6.6 10:29:07 10° NNE 10:32:48 87° E 10:36:30 10° SSW visible
08 Dec 9.7 22:37:07 10° SW 22:39:25 17° W 22:41:45 10° NW visible
09 Dec 8.2 10:02:57 10° NNE 10:06:24 37° E 10:09:50 10° SSE visible
09 Dec 8.4 11:37:35 10° NW 11:39:22 13° WNW 11:41:09 10° W visible
09 Dec 8.2 22:09:40 10° SSW 22:12:53 37° W 22:16:11 10° NNW visible
